When you browse on this site, cookies collect data to enhance your experience and personalize the content and advertising you see.
Visit our Privacy Policy to learn more. By continuing to use the site, you agree to this use of cookies and data.
  • In Hungary
  • List of Countries
  • For 7 days
  • Water Temperature
  • Weather Map
  • News
  • Weather Widgets
  • user-avatar
    Login

    Hourly Weather Tuymetkino

    Today, 14 October, Monday

    Time Temperature Precipitation Wind Pressure Humidity
    00:00 +6°C° 0 mm 5 mps 741 mmHg 86%
    01:00 +6°C° 0 mm 5 mps 741 mmHg 87%
    02:00 +5°C° 0 mm 6 mps 741 mmHg 88%
    03:00 +5°C° 0 mm 6 mps 742 mmHg 90%
    04:00 +5°C° 0.1 mm 6 mps 742 mmHg 90%
    05:00 +5°C° 0.1 mm 6 mps 742 mmHg 90%
    06:00 +5°C° 0.1 mm 6 mps 742 mmHg 89%
    07:00 +6°C° 0 mm 7 mps 743 mmHg 86%
    08:00 +6°C° 0 mm 7 mps 743 mmHg 82%
    09:00 +7°C° 0 mm 8 mps 744 mmHg 78%
    10:00 +8°C° 0.1 mm 7 mps 744 mmHg 77%
    11:00 +8°C° 0.1 mm 7 mps 744 mmHg 76%
    12:00 +8°C° 0.1 mm 7 mps 745 mmHg 75%
    13:00 +8°C° 0.1 mm 7 mps 745 mmHg 77%
    14:00 +8°C° 0.1 mm 7 mps 745 mmHg 79%
    15:00 +8°C° 0.1 mm 7 mps 746 mmHg 81%
    16:00 +8°C° 0.2 mm 7 mps 746 mmHg 82%
    17:00 +7°C° 0.2 mm 6 mps 746 mmHg 82%
    18:00 +7°C° 0.2 mm 6 mps 746 mmHg 83%
    19:00 +6°C° 0 mm 5 mps 747 mmHg 84%
    20:00 +6°C° 0 mm 5 mps 747 mmHg 85%
    21:00 +5°C° 0 mm 5 mps 747 mmHg 86%
    22:00 +5°C° 0 mm 4 mps 747 mmHg 88%
    23:00 +5°C° 0 mm 4 mps 747 mmHg 89%

    Tomorrow, 15 October, Tuesday

    Time Temperature Precipitation Wind Pressure Humidity
    00:00 +5°C° 0 mm 3 mps 746 mmHg 90%
    01:00 +5°C° 0.2 mm 3 mps 746 mmHg 91%
    02:00 +5°C° 0.2 mm 4 mps 746 mmHg 92%
    03:00 +5°C° 0.2 mm 4 mps 745 mmHg 92%
    04:00 +5°C° 0.8 mm 4 mps 744 mmHg 93%
    05:00 +5°C° 0.8 mm 4 mps 743 mmHg 94%
    06:00 +6°C° 0.8 mm 5 mps 742 mmHg 95%
    07:00 +6°C° 0.9 mm 4 mps 741 mmHg 96%
    08:00 +7°C° 0.9 mm 4 mps 741 mmHg 97%
    09:00 +8°C° 0.9 mm 4 mps 740 mmHg 97%
    10:00 +10°C° 0.4 mm 4 mps 740 mmHg 96%
    11:00 +10°C° 0.4 mm 4 mps 740 mmHg 94%
    12:00 +11°C° 0.4 mm 4 mps 740 mmHg 92%
    13:00 +11°C° 0.2 mm 4 mps 740 mmHg 92%
    14:00 +11°C° 0.2 mm 3 mps 741 mmHg 91%
    15:00 +10°C° 0.2 mm 3 mps 741 mmHg 91%
    16:00 +8°C° 0.2 mm 4 mps 742 mmHg 90%
    17:00 +7°C° 0.2 mm 5 mps 743 mmHg 90%
    18:00 +5°C° 0.2 mm 6 mps 744 mmHg 90%
    19:00 +6°C° 0.1 mm 5 mps 744 mmHg 89%
    20:00 +6°C° 0.1 mm 5 mps 745 mmHg 88%
    21:00 +5°C° 0.1 mm 5 mps 746 mmHg 87%
    22:00 +5°C° 0.1 mm 5 mps 747 mmHg 84%
    23:00 +5°C° 0.1 mm 5 mps 747 mmHg 80%

    Day after tomorrow, 16 October, Wednesday

    Time Temperature Precipitation Wind Pressure Humidity
    00:00 +3°C° 0.1 mm 6 mps 748 mmHg 76%
    01:00 +2°C° 0 mm 6 mps 749 mmHg 78%
    02:00 +2°C° 0 mm 5 mps 749 mmHg 80%
    03:00 +1°C° 0 mm 5 mps 750 mmHg 82%
    04:00 +1°C° 0 mm 5 mps 750 mmHg 83%
    05:00 +1°C° 0 mm 5 mps 751 mmHg 83%
    06:00 +1°C° 0 mm 5 mps 751 mmHg 84%
    07:00 +2°C° 0 mm 5 mps 752 mmHg 82%
    08:00 +2°C° 0 mm 5 mps 752 mmHg 80%
    09:00 +2°C° 0 mm 5 mps 753 mmHg 77%
    10:00 +3°C° 0 mm 5 mps 753 mmHg 75%
    11:00 +3°C° 0 mm 5 mps 754 mmHg 74%
    12:00 +3°C° 0 mm 5 mps 754 mmHg 72%
    13:00 +3°C° 0 mm 5 mps 754 mmHg 72%
    14:00 +2°C° 0 mm 5 mps 755 mmHg 72%
    15:00 +2°C° 0 mm 5 mps 755 mmHg 72%
    16:00 +3°C° 0 mm 4 mps 755 mmHg 73%
    17:00 +3°C° 0 mm 4 mps 756 mmHg 74%
    18:00 +1°C° 0 mm 4 mps 756 mmHg 75%
    19:00 +2°C° 0 mm 3 mps 756 mmHg 77%
    20:00 +2°C° 0 mm 2 mps 757 mmHg 80%
    21:00 +3°C° 0 mm 1 mps 757 mmHg 83%
    22:00 +2°C° 0 mm 1 mps 757 mmHg 83%
    23:00 +2°C° 0 mm 1 mps 757 mmHg 84%

    17 October, Thursday

    Time Temperature Precipitation Wind Pressure Humidity
    00:00 +2°C° 0 mm 1 mps 757 mmHg 85%
    01:00 +2°C° 0 mm 1 mps 757 mmHg 85%
    02:00 +2°C° 0 mm 1 mps 757 mmHg 85%
    03:00 +2°C° 0 mm 1 mps 757 mmHg 85%
    04:00 +2°C° 0 mm 1 mps 757 mmHg 85%
    05:00 +1°C° 0 mm 2 mps 757 mmHg 85%
    06:00 +1°C° 0 mm 2 mps 757 mmHg 86%
    07:00 +1°C° 0.1 mm 3 mps 757 mmHg 86%
    08:00 +1°C° 0.1 mm 4 mps 756 mmHg 85%
    09:00 +1°C° 0.1 mm 5 mps 756 mmHg 85%
    10:00 +2°C° 0.1 mm 5 mps 755 mmHg 82%
    11:00 +2°C° 0.1 mm 6 mps 755 mmHg 79%
    12:00 +3°C° 0.1 mm 6 mps 754 mmHg 76%
    13:00 +3°C° 0 mm 7 mps 753 mmHg 74%
    14:00 +3°C° 0 mm 7 mps 753 mmHg 72%
    15:00 +4°C° 0 mm 8 mps 752 mmHg 70%
    16:00 +4°C° 0 mm 8 mps 751 mmHg 70%
    17:00 +4°C° 0 mm 8 mps 750 mmHg 69%
    18:00 +4°C° 0 mm 8 mps 749 mmHg 68%
    19:00 +4°C° 0 mm 8 mps 749 mmHg 68%
    20:00 +4°C° 0 mm 8 mps 748 mmHg 67%
    21:00 +3°C° 0 mm 9 mps 747 mmHg 67%
    22:00 +4°C° 0 mm 8 mps 747 mmHg 67%
    23:00 +4°C° 0 mm 8 mps 746 mmHg 68%

    18 October, Friday

    Time Temperature Precipitation Wind Pressure Humidity
    00:00 +4°C° 0 mm 8 mps 745 mmHg 68%
    01:00 +4°C° 0.4 mm 8 mps 745 mmHg 72%
    02:00 +4°C° 0.4 mm 8 mps 744 mmHg 76%
    03:00 +5°C° 0.4 mm 8 mps 743 mmHg 80%
    04:00 +5°C° 0.1 mm 8 mps 743 mmHg 84%
    05:00 +6°C° 0.1 mm 8 mps 743 mmHg 87%
    06:00 +6°C° 0.1 mm 7 mps 743 mmHg 91%
    07:00 +5°C° 0.3 mm 7 mps 744 mmHg 86%
    08:00 +3°C° 0.3 mm 7 mps 744 mmHg 82%
    09:00 0°C° 0.3 mm 7 mps 745 mmHg 77%
    10:00 0°C° 0 mm 7 mps 745 mmHg 73%
    11:00 +1°C° 0 mm 8 mps 746 mmHg 70%
    12:00 +1°C° 0 mm 8 mps 746 mmHg 66%
    13:00 0°C° 0 mm 8 mps 747 mmHg 67%
    14:00 0°C° 0 mm 8 mps 747 mmHg 68%
    15:00 0°C° 0 mm 8 mps 748 mmHg 69%
    16:00 -1°C° 0 mm 8 mps 748 mmHg 70%
    17:00 -1°C° 0 mm 8 mps 749 mmHg 72%
    18:00 -2°C° 0 mm 8 mps 749 mmHg 74%
    19:00 -2°C° 0 mm 8 mps 750 mmHg 75%
    20:00 -3°C° 0 mm 7 mps 750 mmHg 76%
    21:00 -3°C° 0 mm 7 mps 751 mmHg 77%
    22:00 -3°C° 0 mm 7 mps 751 mmHg 77%
    23:00 -3°C° 0 mm 7 mps 752 mmHg 78%

    19 October, Saturday

    Time Temperature Precipitation Wind Pressure Humidity
    00:00 -3°C° 0 mm 7 mps 752 mmHg 79%
    01:00 -4°C° 0 mm 7 mps 753 mmHg 78%
    02:00 -4°C° 0 mm 7 mps 753 mmHg 78%
    03:00 -4°C° 0 mm 6 mps 753 mmHg 78%
    04:00 -4°C° 0 mm 6 mps 754 mmHg 78%
    05:00 -5°C° 0 mm 5 mps 754 mmHg 79%
    06:00 -5°C° 0 mm 5 mps 755 mmHg 79%
    07:00 -5°C° 0 mm 5 mps 755 mmHg 75%
    08:00 -4°C° 0 mm 5 mps 756 mmHg 70%
    09:00 -4°C° 0 mm 5 mps 756 mmHg 66%
    10:00 -2°C° 0 mm 5 mps 756 mmHg 61%
    11:00 -1°C° 0 mm 4 mps 757 mmHg 57%
    12:00 0°C° 0 mm 4 mps 757 mmHg 52%
    13:00 0°C° 0 mm 4 mps 757 mmHg 53%
    14:00 0°C° 0 mm 4 mps 757 mmHg 53%
    15:00 +1°C° 0 mm 3 mps 757 mmHg 54%
    16:00 0°C° 0 mm 3 mps 758 mmHg 59%
    17:00 -1°C° 0 mm 2 mps 758 mmHg 63%
    18:00 -2°C° 0 mm 2 mps 758 mmHg 68%
    19:00 0°C° 0 mm 1 mps 758 mmHg 69%
    20:00 0°C° 0 mm 1 mps 758 mmHg 69%
    21:00 0°C° 0 mm 1 mps 758 mmHg 70%
    22:00 0°C° 0 mm 1 mps 758 mmHg 69%
    23:00 0°C° 0 mm 1 mps 758 mmHg 69%
    Show more